Portada
METAR-TAF:

METAR-TAF

Aeroports :

Lampang, Tailàndia

latitud: 18-17N, longitud: 099-31E, altitud: 241 m

Observació

L'informe es va fer fa 36 minuts, a les 03:00 UTC
Vent 2 kt amb direcció variable
Temperatura 28°C
Humitat 58%
Pressió 1018 hPa
Visibilitat 10 km o més
sense núvols per sota de 1500 mi sense presència de cumulonimbus.

METAR: VTCL 210300Z VRB02KT CAVOK 28/19 Q1018 NOSIG

Hora: 10:36 (03:36 UTC)

Pronòstic

L'informe es va fer fa 4 hores i 36 minuts, a les 23:00 UTC
Pronòstic vàlid del 21 a les 00 UTC al 21 a les 24 UTC
Vent 5 kt del Nord-Est
Visibilitat 10 km o més
Escasses núvols a una alçada de 3500 ft

TAF: VTCL 202300Z 2100/2124 05005KT 9999 FEW035

Observacions i pronòstics meteorològics de més de 4000 aeroports (METAR i TAF).

Les estacions disponibles són els punts grocs i vermells al mapa.

Posi el ratolí al punt desitjat per veure el nom de l'estació.

Feu clic per veure les observacions i els pronòstics meteorològics.

Per canviar el mapa: feu clic els botons verds amb una creu de color negre per apropar; al botó verd amb un guió per allunyar la imatge; o en les fletxes verdes per a mapes adjacents.


METAR-TAF: